Flag for Brazil Weather past 2 weeks in São Paulo, São Paulo, Brazil

Now
72 °F

Sunny.


Feels Like: 72 °F
Forecast: 70 / 81 °F
Wind: 6 mph from West

Location: Sao Paulo Airport

Current Time: Jan 30, 2015 at 9:13:19 AM

Latest Report: Jan 30, 2015 at 8:00 AM


Visibility: 10 mi

Pressure: 30.07 "Hg

Humidity: 78%

Dew point: 64 °F

Location of São PauloLocation

Historic Weather in São Paulo — Graph

°F

São Paulo temperature yesterday

Maximum temperature yesterday: 84 °F (at 4:00 PM)
Minimum temperature yesterday: 72 °F (at 7:00 AM)
Average temperature yesterday: 77 °F

Past Weeks' High & Low Weather Summary

 TemperatureHumidityPressure
High95 °F (Jan 17, 4:00 PM)100% (Jan 22, 12:00 AM)30.15 "Hg (Jan 22, 12:00 AM)
Low34 °F (Jan 22, 12:00 AM)23% (Jan 19, 3:00 PM)29.95 "Hg (Jan 20, 4:00 PM)
Average76 °F68%30.06 "Hg
* Reported Jan 15 8:00 AM — Jan 30 8:00 AM, São Paulo, Weather by CustomWeather, © 2014

Note: Actual official high and low records may vary slightly from our data, if they occured in-between our weather recording intervals... More about our weather records

Advertising

São Paulo weather history for previous 24 hours

 ConditionsComfort  
Time TempWeatherWind HumidityBarometerVisibility
8:00 AM
Jan 30
72 °FSunny.6 mph78%30.07 "Hg10 mi
7:00 AM72 °FSunny.7 mph73%30.04 "Hg10 mi
6:00 AM70 °FClear.8 mph78%30.04 "Hg10 mi
5:00 AM72 °FClear.8 mph73%30.04 "Hg10 mi
4:00 AM72 °FClear.7 mph73%30.01 "Hg10 mi
3:00 AM72 °FClear.10 mph73%30.04 "Hg10 mi
2:00 AM73 °FClear.9 mph69%30.04 "Hg10 mi
1:00 AM73 °FClear.8 mph78%30.07 "Hg10 mi
12:00 AM75 °FClear.10 mph74%30.07 "Hg10 mi
11:00 PM
Jan 29
77 °FLight rain. Clear.10 mph69%30.07 "HgN/A
10:00 PM77 °FClear.13 mph69%30.04 "Hg10 mi
9:00 PM79 °FClear.10 mph61%30.04 "Hg10 mi
8:00 PM79 °FClear.13 mph61%30.01 "Hg10 mi
7:00 PM79 °FSunny.13 mph61%29.98 "Hg10 mi
6:00 PM79 °FPassing clouds.18 mph58%29.98 "HgN/A
5:00 PM82 °FScattered clouds.16 mph51%29.98 "HgN/A
4:00 PM84 °FScattered clouds.17 mph48%30.01 "HgN/A
3:00 PM82 °FPartly sunny.22 mph51%30.01 "HgN/A
2:00 PM81 °FPartly sunny.18 mph54%30.04 "HgN/A
1:00 PM79 °FBroken clouds.18 mph58%30.04 "HgN/A
12:00 PM77 °FPartly sunny.17 mph61%30.07 "HgN/A
11:00 AM79 °FScattered clouds.17 mph58%30.07 "HgN/A
10:00 AM75 °FScattered clouds.15 mph65%30.07 "HgN/A
9:00 AM72 °FScattered clouds.16 mph73%30.07 "HgN/A
Weather by CustomWeather, © 2014

See weather overviewHow to use our weather pages